Location: Unspecified
(0.0000°N, 0.0000°E)
Time: 08:56:08
(UTC+00:00)

deb r/b Ablestar - Pass Details

Date: 09 March 2026
Orbit: 827 x 964 km, 67.7° (Epoch: 19 April)

Event Time Altitude Azimuth Distance (km) Brightness Sun altitude
Rises 21:15:52 0° 302° (WNW) 3,482 ? -46.2°
Reaches altitude 10° 21:19:54 10° 275° (W) 2,580 ? -47.2°
Enters shadow 21:21:51 13° 256° (WSW) 2,409 ? -47.7°
